SVRATOUCH Weather Reports


time (UTC)temp
F
wind
direction
speed
knots
gust
knots
rain 1hr
in
rain 24hr
in
rain mn
in
humidity
%
barometer
mb
20260902002026 57 230 4.3 0.0 0.00 0.00 0.00 67
20260901232159 57 210 4.3 0.0 0.00 0.00 0.00 67
20260901222317 57 190 6.1 0.0 0.00 0.00 0.00 67
20260901212026 57 180 6.1 0.0 0.00 0.00 0.00 67
20260901202215 57 180 1.7 0.0 0.00 0.00 0.00 67
20260901192215 59 260 1.7 0.0 0.00 0.00 0.00 62
20260901182026 61 290 1.7 0.0 0.00 0.00 0.00 63
20260901172215 64 330 1.7 0.0 0.00 0.00 0.00 55
20260901162318 64 330 4.3 0.0 0.00 0.00 0.00 52
20260901152026 66 330 7.8 0.0 0.00 0.00 0.00 52
20260901142215 64 290 10.4 0.0 0.00 0.00 0.00 55
20260901132115 63 330 7.8 0.0 0.00 0.00 0.00 59
20260901122033 64 290 12.2 0.0 0.00 0.00 0.00 55
20260901112117 63 300 10.4 0.0 0.00 0.00 0.00 59
20260901102332 61 290 12.2 0.0 0.00 0.00 0.00 63
20260901092033 61 300 10.4 0.0 0.00 0.00 0.00 67
20260901082250 59 290 13.9 0.0 0.00 0.00 0.00 67
20260901072246 59 290 12.2 0.0 0.00 0.00 0.00 77
20260901062046 55 280 12.2 0.0 0.00 0.00 0.00 82
20260901052131 54 270 10.4 0.0 0.00 0.00 0.00 87
20260901042346 55 270 12.2 0.0 0.00 0.00 0.00 82
20260901032047 55 270 10.4 0.0 0.00 0.00 0.00 82
20260901022246 55 280 12.2 0.0 0.00 0.00 0.00 76
20260901012250 57 260 10.4 0.0 0.00 0.00 0.00 76